Weather Roundup
Issued by NWS

Home | Current Version | Previous Version | Text Only | Print | Product List | Glossary On
Versions: 1 2 3 4 5 6 7 8 9 10 11 12 13 14 15 16 17 18 19 20 21 22 23 24 25 26 27 28 29 30 31 32 33 34 35 36 37 38 39 40 41 42 43 44 45 46 47 48 49 50
000
NZUS93 KARX 271959
HRRWXR

CURRENT HOURLY OBSERVATIONS ACROSS
MUCH OF THE UPPER MISSISSIPPI VALLEY
NATIONAL WEATHER SERVICE LA CROSSE WI
300 PM CDT THU AUG 27 2015


...SOUTHEAST MINNESOTA...


CITY           SKY/WX    TMP DP  RH WIND       PRES   REMARKS
ROCHESTER      PTSUNNY   71  59  65 S12       30.07F
ROCHESTER/MAYO FAIR      74  56  53 S9G17     30.06F
WINONA         CLOUDY    75  57  53 CALM      30.07F
AUSTIN         CLOUDY    73  57  56 S9        30.05F
ALBERT LEA     CLOUDY    70  57  64 SE10      30.03F
DODGE CENTER   CLOUDY    72  57  60 S10       30.06F
PRESTON        PTSUNNY   73  56  54 S13       30.07F
OWATONNA       CLOUDY    73  59  60 S10G17    30.06R
FARIBAULT      CLOUDY    73  61  64 S12       30.05R
$$

...ELSEWHERE IN MINNESOTA...


CITY           SKY/WX    TMP DP  RH WIND       PRES   REMARKS
MINNEAPOLIS    CLOUDY    74  60  61 S10       30.03F
INTNL FALLS    SUNNY     75  56  51 CALM      29.97F
DULUTH         PTSUNNY   72  57  59 S13       30.04F
RED WING       CLOUDY    75  57  53 SE8       30.03F
REDWOOD FALLS  LGT RAIN  65  62  90 S20       30.02R
MANKATO        CLOUDY    70  57  64 S10G17    30.04F
WORTHINGTON    CLOUDY    72  63  73 SE3       30.04R
FAIRMONT       CLOUDY    68  55  64 S3        30.06R
$$

...SOUTHWEST WISCONSIN...


CITY           SKY/WX    TMP DP  RH WIND       PRES   REMARKS
LA CROSSE      PTSUNNY   75  57  53 S12       30.07F
PRAIRIE DU CHI PTSUNNY   76  55  47 S7        30.08F
BOSCOBEL       CLOUDY    77  59  53 VRB7      30.09F
LONE ROCK      NOT AVBL
PLATTEVILLE    PTSUNNY   72  60  66 SW8       30.12F
FORT MC COY    MOSUNNY   76  53  44 S9G17     30.10F
VIROQUA        FAIR      71  57  60 S8        30.11F
WIS DELLS      MOSUNNY   76  53  44 S6        30.12F
$$

...ELSEWHERE IN WISCONSIN...


CITY           SKY/WX    TMP DP  RH WIND       PRES   REMARKS
MILWAUKEE      MOSUNNY   70  54  56 SE14      30.15F
MADISON        PTSUNNY   74  55  51 SW6       30.12F
GREEN BAY      SUNNY     75  56  51 VRB6      30.11F
EAU CLAIRE     MOSUNNY   75  55  49 S10       30.06F
BLACK RVR FLS  FAIR      77  53  42 S6        30.08F
MEDFORD        MOSUNNY   72  57  59 SW7       30.10F
WAUSAU         SUNNY     74  54  49 S10       30.09F
WIS RAPIDS     SUNNY     75  53  46 S7        30.11F
MARSHFIELD     MOSUNNY   76  53  44 SW10      30.09F
RICE LAKE      CLOUDY    72  56  58 S6        30.08F
$$

...NORTHEAST IOWA...


CITY           SKY/WX    TMP DP  RH WIND       PRES   REMARKS
DECORAH        MOSUNNY   73  59  60 S10       30.07F
MASON CITY     CLOUDY    69  59  70 SE14      30.05F
CHARLES CITY   PTSUNNY   75  61  60 S12       30.08S
OELWEIN        MOSUNNY   73  59  60 S13       30.09F
$$

...ELSEWHERE IN IOWA...


CITY           SKY/WX    TMP DP  RH WIND       PRES   REMARKS
DES MOINES     CLOUDY    73  61  65 S12       30.04F
IOWA CITY      CLOUDY    74  60  61 S13       30.11F
FORT DODGE     CLOUDY    70  61  73 S9        30.05F
$$

...NORTHERN ILLINOIS...


CITY           SKY/WX    TMP DP  RH WIND       PRES   REMARKS
CHICAGO-OHARE  MOSUNNY   74  52  46 E6        30.14F
CHICAGO-MIDWAY MOSUNNY   75  54  47 E5        30.15F
MOLINE         CLOUDY    74  59  59 S5        30.14F
ROCKFORD       PTSUNNY   72  55  55 VRB5      30.16F
PEORIA         CLOUDY    77  56  48 SW6       30.16S
$$

NOTE: "FAIR" INDICATES FEW OR NO CLOUDS BELOW 12,000 FEET WITH NO
SIGNIFICANT WEATHER AND/OR OBSTRUCTIONS TO VISIBILITY. WIND
SPEEDS ARE IN MILES-PER-HOUR.



USA.gov is the U.S. government's official web portal to all federal, state and local government web resources and services.